Regional Weather Roundup
Issued by NWS Upton, NY

Current Version | Previous Version | Text Only | Print | Product List | Glossary On
Versions: 1 2 3 4 5 6 7 8 9 10 11 12 13 14 15 16 17 18 19 20 21 22 23 24 25 26 27 28 29 30 31 32 33 34 35 36 37 38 39 40 41 42 43 44 45 46 47 48 49
000
ASUS41 KOKX 241705
RWROKX

REGIONAL WEATHER ROUNDUP
NATIONAL WEATHER SERVICE NEW YORK NY
1200 PM EST MON NOV 24 2014

NOTE: "FAIR" INDICATES FEW OR NO CLOUDS BELOW 12,000 FEET WITH NO
SIGNIFICANT WEATHER AND/OR OBSTRUCTIONS TO VISIBILITY.

NYZ071-072-176-178-NJZ106-104-241800-
NEW YORK CITY METRO AREA


CITY           SKY/WX    TMP DP  RH WIND       PRES   REMARKS
CENTRAL PARK   CLOUDY    67  59  75 VRB3      29.65F
LAGUARDIA APRT PTSUNNY   63  59  87 S12       29.63F
KENNEDY INTL   FOG       60  58  92 S22G28    29.65F VSB 1/2
NEWARK/LIBERTY PTSUNNY   69  58  67 SW12G26   29.61F
BRNX BOT. GARD   N/A     63  59  88 S7        29.66S
TETERBORO      CLOUDY    68  59  73 S13       29.61F
$$

NYZ177-179-078>081-241800-
LONG ISLAND NEW YORK

CITY           SKY/WX    TMP DP  RH WIND       PRES   REMARKS
FARMINGDALE    FOG       62  59  90 S24G33    29.66F VSB 1/4
ISLIP          FOG       60  59  96 S14G23    29.67F VSB 1/4
SHIRLEY        FOG       61  60  97 S15       29.69F VSB 1/2
WESTHAMPTON    CLOUDY    61  60  97 SW17G26   29.71F FOG
MONTAUK POINT    N/A     62  60  93 S15G26    29.71F
$$

NYZ052-065-067-241800-
HUDSON VALLEY

CITY           SKY/WX    TMP DP  RH WIND       PRES   REMARKS
WHITE PLAINS     N/A     63  60  90 S8        29.63F FOG
NEWBURGH       PTSUNNY   66  61  82 SW12G23   29.60F
MONTGOMERY     MOSUNNY   70  58  65 SW18G26   29.56F
POUGHKEEPSIE   CLOUDY    68  59  73 VRB7      29.58F
ALBANY         PTSUNNY   65  59  81 S16G30    29.52F
$$

NJZ001-105-106-008-010-013-015-019>022-104-241800-
NEW JERSEY

CITY           SKY/WX    TMP DP  RH WIND       PRES   REMARKS
NEWARK/LIBERTY PTSUNNY   69  58  67 SW12G26   29.61F
TETERBORO      CLOUDY    68  59  73 S13       29.61F
CALDWELL       CLOUDY    68  58  70 SW8       29.61F
MORRISTOWN     CLOUDY    70  61  73 SW17      29.61F
SOMERVILLE     PTSUNNY   70  57  63 MISG      29.60F
SUSSEX         CLOUDY    69  57  65 SW13G29   29.58F
ANDOVER          N/A     67  57  70 SW12G25   29.59F
TRENTON        MOSUNNY   70  59  68 SW18G30   29.63F
MILLVILLE      PTSUNNY   69  59  70 SW13G24   29.68F
ATLANTIC CITY  PTSUNNY   64  61  90 S6        29.68F
WRIGHTSTOWN    CLOUDY    70  60  72 SW15G24   29.62F
TOMS RIVER     CLOUDY    66  63  88 S9        29.66F
BELMAR         CLOUDY    68  59  73 S14G21    29.65F
$$

PAZ047>061-062-071-241800-
EASTERN PENNSYLVANIA

CITY           SKY/WX    TMP DP  RH WIND       PRES   REMARKS
PHILADELPHIA   PTSUNNY   70  58  65 SW24G31   29.65F
ALLENTOWN      MOSUNNY   70  55  60 SW17G25   29.59F
SCRANTON       SUNNY     68  54  60 S23G39    29.51F
$$

CTZ002-004>006-009-010-012-RIZ004-006-007-MAZ004-011-015-241800-
SOUTHERN NEW ENGLAND
 IN CT

CITY           SKY/WX    TMP DP  RH WIND       PRES   REMARKS
BRADLEY INTL   CLOUDY    64  60  87 S13       29.62F
HARTFORD       CLOUDY    63  60  90 S13G23    29.64F FOG
DANBURY        CLOUDY    63  58  83 S12G20    29.64F
WTRBRY/OXFORD  DRIZZLE   61  57  88 S9G21     29.67F FOG
BRIDGEPORT     PTSUNNY   61  60  97 S21       29.65F
MERIDEN        CLOUDY    62  59  90 S12G21    29.65F
NEW HAVEN      FOG       63  59  87 S21       29.66F VSB 1
CHESTER        FOG       61  61 100 SW16G24   29.69F VSB 3/4
GROTON         LGT RAIN  58  32  37 S15       29.69F
WILLIMANTIC    LGT RAIN  65  61  87 SW13G23   29.68F FOG

 IN RI

CITY           SKY/WX    TMP DP  RH WIND       PRES   REMARKS
PROVIDENCE     LGT RAIN  65  62  90 S28G35    29.70F FOG
BLOCK ISLAND   CLOUDY    63  59  88 S26G32    29.71F
WESTERLY       CLOUDY    61  60  97 SW15      29.71F FOG

 IN MA

CITY           SKY/WX    TMP DP  RH WIND       PRES   REMARKS
BOSTON         LGT RAIN  64  61  90 S18G28    29.66F FOG
WORCESTER      LGT RAIN  61  59  93 S15G25    29.66F FOG
WESTFIELD      CLOUDY    64  59  83 S10       29.61F
PROVINCETOWN   CLOUDY    63  55  77 S20G28    29.72F
NANTUCKET      CLOUDY    59  57  93 S26G37    29.78F FOG
$$

ANZ330-335-338-340-345-350-353-355-241800-
COASTAL MARINE OBSERVATIONS


STATION/POSITION TIME  SKY/WX   TEMP    WIND        PRES    VSBY  WAVE
                                AIR SEA DIR/SP/G                  HT/PER
                 (UTC)          (F)     (DEG/KT/KT) (MB)    (MI)  (FT/S)
NY HARB ENTRANCE 1700            58 56  200/ 23/ 27 1004.3          8/ 8
4S FIRE IS       1700               53                N/A           9/ 7
20S FIRE ISLAND  1700            61 56  200/ 23/ 27 1004.5         10/ 8
23SW MTP         1700                                 N/A          10/ 8
HUDSON CANYON    1700            64 60  200/ 23/ 29 1006.9         12/ 9
EXECUTION ROCKS  1700            60 48  200/ 14/ 17   N/A
WESTERN LI SOUND 1700            61     190/ 14/ 17   N/A           1/ 3
CENTRAL LI SOUND 1600            58 51  220/ 17/ 23   N/A           3/ 4
EASTERN LI SOUND 1600            59 53  200/ 16/ 21   N/A
ROBBINS REEF     1600            68     210/ 15/ 19 1002.3
$$


>>>>>>>>>>>>>>>>>>>>>>>>>>>> KEY <<<<<<<<<<<<<<<<<<<<<<<<<<<
>                                                          <
>     SKY/WX - SKY CONDITION/PRESENT WEATHER               <
>     TMP    - TEMPERATURE IN FAHRENHEIT                   <
>     DP     - DEWPOINT IN FAHRENHEIT                      <
>     RH     - RELATIVE HUMIDITY IN PERCENT                <
>     WIND   - DIRECTION AND SPEED IN MPH                  <
>     PRES   - MEAN SEA LEVEL PRESSURE IN INCHES OF HG     <
>     WCI    - WIND CHILL INDEX                            <
>     VSB    - VISIBILITY IN MILES                         <
>     HX     - HEAT INDEX                                  <
>     TC     - TEMPERATURE IN CELSIUS                      <
>     VRB    - VARIABLE WIND DIRECTION                     <
>                                                          <
>>>>>>>>>>>>>>>>>>>>>>>>>>>> KEY <<<<<<<<<<<<<<<<<<<<<<<<<<<




USA.gov is the U.S. government's official web portal to all federal, state and local government web resources and services.